カタログに戻る

SATCOM 2R

運用中通信GEO
NORAD 14328·PAYLOAD·🇺🇸 United States

打ち上げ Sep 8, 1983 から Cape Canaveral Space Force Station

Loading…

TLE

最新Source: Space-Track

元期: Sep 14, 2026, 05:33 UTC

1 14328U 83094A   26257.23139185 -.00000058  00000-0  00000-0 0  9990
2 14328  14.2689 345.2620 0012792  83.5882 271.2767  0.99407299156437

AllMySatでSATCOM 2Rをリアルタイム追跡

Download on the App Store